STARLINK-3285, 50181

Orbit data source: Space-Track

STARLINK-3285, 50181 is a payload satellite owned by SpaceX/Seattle (US) in LEO that was launched on Sat, 18 Dec 2021 UTC via an FALCON 9 launch vehicle from the Air Force Western Test Range (AFWTR). Payload-class satellites include a variety of spacecraft equipped with specific instruments for various scientific and technological missions. These include communications satellites like Starlink; space stations such as the ISS; scientific satellites like the Hubble; Earth observation satellites from companies like Planet Labs, Umbra, and HawkEye 360; GPS; miniature CubeSats for education and research; and military/defense satellites.

Loading next visibility...
Identifier
50181, 2021-125AB
Orbit
LEO
Country
Flag of USUS
Related business
Manufacturer
SpaceX/Seattle
Mission
Operational Commercial Communications
Bus & Motor
STARLINK, Unknown motor
Mass
290 kg wet, ~270 kg dry
Launch date (UTC)
2021-12-18 (5 years ago)
Launch vehicle
FALCON 9
Launch site
Air Force Western Test Range (AFWTR)
Object type
Payload
Rocket body
Debris
Shape & HBR
Box + 1 Pan, 10.1 m
Radar Cross Section
13.562 m², Large (>1 m²)

Expand to show TLE details & history
Last TLE update: 12 hours ago

TLE from 12 hours ago
0 STARLINK-3285
1 50181U 21125AB  26169.68667160  .00000497  00000-0  49301-4 0  9991
2 50181  53.1604 155.6331 0001006  90.5666 269.5441 15.08835353251852
Epoch: 2026-06-18T16:28Z
TLE epoch observation values (Epoch: 2026-06-18T16:28:48.426Z)
Latitude
0.00001°
Longitude
1.5049°
Altitude
540.655 km
Speed
7.593 km/s
True Right ascension
10h 22m 31s
True Declination
0° 00' 00"
Sunlit
Object was in daylight at epoch
Visualization orbit readout
Latitude
Unknown
Longitude
Unknown
Altitude
Unknown
Speed
Unknown
Apparent Right ascension
Unknown
Apparent Declination
Unknown
Sunlit
N/A
Visualization observer readout
Local Sidereal Time
15:37:12
Azimuth
Unknown
Elevation
Unknown
Doppler factor
Unknown
Orbital elements
Apogee altitude
540.708 km
Perigee altitude
539.316 km
Semi-major axis
6,918.149 km
Eccentricity
0.0001
Inclination
53.1604°
RAAN
155.6331°
Arg. of periapsis
90.5666°
True anomaly
269.53257°
Mean anomaly
269.5441°
Eccentric anomaly
269.53834°
Mean motion
3.77188 °/min
Orbital period
95.44 mins
BSTAR
0.000049301
Loading maneuver chart data...
Computing Atmospheric mass density...
Loading historical data...
Loading historical data...
Loading historical data...
Loading historical data...
Loading historical data...
Loading historical data...
Loading historical data...

Documentation

Showing up to 5 results
|